Zurück zum Katalog

ARIANE 44L+ DEB

AktivGTO
NORAD 32999·DEBRIS·🇫🇷 France

Gestartet Apr 15, 1992 von Guiana Space Centre

Loading…

TLE

AlterndSource: Space-Track

Epoche: Sep 14, 2026, 12:58 UTC

1 32999U 92021T   26257.54060497 -.00000039  00000-0  11288-1 0  9997
2 32999   4.0164 293.8460 7024859 257.1785 147.8222  2.24668958195732

Verfolge ARIANE 44L+ DEB in Echtzeit mit AllMySat

Download on the App Store